Time,TemperatureF,DewpointF,PressureIn,WindDirection,WindDirectionDegrees,WindSpeedMPH,WindSpeedGustMPH,Humidity,HourlyPrecipIn,Conditions,Clouds,dailyrainin,SoftwareType,DateUTC
2013-09-19 00:01:00,68.0,-99.9,-100.00,SSW,193,0.0,-999.0,-999,-99.99,,,-99.99,,2013-09-19 04:01:00,
2013-09-19 00:25:00,69.0,-99.9,-100.00,SSW,193,0.0,-999.0,-999,-99.99,,,-99.99,,2013-09-19 04:25:00,
2013-09-19 00:54:00,69.0,-99.9,-100.00,SSW,193,0.0,-999.0,-999,-99.99,,,-99.99,,2013-09-19 04:54:00,
2013-09-19 01:23:00,68.0,-99.9,-100.00,SSW,193,0.0,-999.0,-999,-99.99,,,-99.99,,2013-09-19 05:23:00,
2013-09-19 01:52:00,69.0,-99.9,-100.00,SSW,193,0.0,-999.0,-999,-99.99,,,-99.99,,2013-09-19 05:52:00,
2013-09-19 02:13:00,69.0,-99.9,-100.00,SSW,206,0.0,-999.0,-999,-99.99,,,-99.99,,2013-09-19 06:13:00,
2013-09-19 02:22:00,68.0,-99.9,-100.00,SSW,206,0.0,-999.0,-999,-99.99,,,-99.99,,2013-09-19 06:22:00,
2013-09-19 02:52:00,67.0,-99.9,-100.00,SSW,206,0.0,-999.0,-999,-99.99,,,-99.99,,2013-09-19 06:52:00,
2013-09-19 03:22:00,67.0,-99.9,-100.00,SSW,195,0.0,-999.0,-999,-99.99,,,-99.99,,2013-09-19 07:22:00,
2013-09-19 03:52:00,67.0,-99.9,-100.00,SSW,195,0.0,-999.0,-999,-99.99,,,-99.99,,2013-09-19 07:52:00,
2013-09-19 04:22:00,68.0,-99.9,-100.00,SSW,195,0.0,-999.0,-999,-99.99,,,-99.99,,2013-09-19 08:22:00,
2013-09-19 04:52:00,68.0,-99.9,-100.00,SSW,195,0.0,-999.0,-999,-99.99,,,-99.99,,2013-09-19 08:52:00,
2013-09-19 05:22:00,66.0,-99.9,-100.00,South,190,0.0,-999.0,-999,-99.99,,,-99.99,,2013-09-19 09:22:00,
2013-09-19 05:53:00,66.0,-99.9,-100.00,South,190,0.0,-999.0,-999,-99.99,,,-99.99,,2013-09-19 09:53:00,
2013-09-19 06:24:00,66.0,-99.9,-100.00,South,191,0.0,-999.0,-999,-99.99,,,-99.99,,2013-09-19 10:24:00,
2013-09-19 06:52:00,65.0,-99.9,-100.00,South,191,0.0,-999.0,-999,-99.99,,,-99.99,,2013-09-19 10:52:00,
2013-09-19 07:12:00,65.0,-99.9,-100.00,South,191,2.0,-999.0,-999,-99.99,,,-99.99,,2013-09-19 11:12:00,
2013-09-19 07:22:00,65.0,-99.9,-100.00,South,191,0.0,-999.0,-999,-99.99,,,-99.99,,2013-09-19 11:22:00,
2013-09-19 07:53:00,65.0,-99.9,-100.00,SSW,198,0.0,-999.0,-999,-99.99,,,-99.99,,2013-09-19 11:53:00,
2013-09-19 08:12:00,65.0,-99.9,-100.00,SSW,198,0.0,-999.0,-999,-99.99,,,-99.99,,2013-09-19 12:12:00,
2013-09-19 08:22:00,65.0,-99.9,-100.00,SSW,198,0.0,-999.0,-999,-99.99,,,-99.99,,2013-09-19 12:22:00,
2013-09-19 08:52:00,66.0,-99.9,-100.00,SSW,198,0.0,-999.0,-999,-99.99,,,-99.99,,2013-09-19 12:52:00,
2013-09-19 09:11:00,66.0,-99.9,-100.00,SSW,198,0.0,-999.0,-999,-99.99,,,-99.99,,2013-09-19 13:11:00,
2013-09-19 09:22:00,67.0,-99.9,-100.00,SSW,194,1.0,-999.0,-999,-99.99,,,-99.99,,2013-09-19 13:22:00,
2013-09-19 09:52:00,68.0,-99.9,-100.00,South,190,0.0,-999.0,-999,-99.99,,,-99.99,,2013-09-19 13:52:00,
2013-09-19 10:22:00,69.0,-99.9,-100.00,SSW,192,0.0,-999.0,-999,-99.99,,,-99.99,,2013-09-19 14:22:00,
2013-09-19 10:52:00,69.0,-99.9,-100.00,SSW,198,0.0,-999.0,-999,-99.99,,,-99.99,,2013-09-19 14:52:00,
2013-09-19 11:22:00,68.0,-99.9,-100.00,SSW,199,0.0,-999.0,-999,-99.99,,,-99.99,,2013-09-19 15:22:00,
2013-09-19 11:54:00,69.0,-99.9,-100.00,South,188,0.0,-999.0,-999,-99.99,,,-99.99,,2013-09-19 15:54:00,
2013-09-19 12:04:00,69.0,-99.9,-100.00,South,188,0.0,-999.0,-999,-99.99,,,-99.99,,2013-09-19 16:04:00,
2013-09-19 12:24:00,71.0,-99.9,-100.00,South,188,0.0,-999.0,-999,-99.99,,,-99.99,,2013-09-19 16:24:00,
2013-09-19 12:53:00,72.0,-99.9,-100.00,South,187,0.0,-999.0,-999,-99.99,,,-99.99,,2013-09-19 16:53:00,
2013-09-19 13:23:00,70.0,-99.9,-100.00,South,185,2.0,-999.0,-999,-99.99,,,-99.99,,2013-09-19 17:23:00,
2013-09-19 13:53:00,71.0,-99.9,-100.00,South,191,2.0,-999.0,-999,-99.99,,,-99.99,,2013-09-19 17:53:00,
2013-09-19 14:12:00,71.0,-99.9,-100.00,South,191,0.0,-999.0,-999,-99.99,,,-99.99,,2013-09-19 18:12:00,
2013-09-19 14:22:00,71.0,-99.9,-100.00,South,190,4.0,-999.0,-999,-99.99,,,-99.99,,2013-09-19 18:22:00,
2013-09-19 14:52:00,71.0,-99.9,-100.00,South,189,0.0,-999.0,-999,-99.99,,,-99.99,,2013-09-19 18:52:00,
2013-09-19 15:12:00,71.0,-99.9,-100.00,South,189,0.0,-999.0,-999,-99.99,,,-99.99,,2013-09-19 19:12:00,
2013-09-19 15:22:00,71.0,-99.9,-100.00,South,189,0.0,-999.0,-999,-99.99,,,-99.99,,2013-09-19 19:22:00,
2013-09-19 15:53:00,70.0,-99.9,-100.00,North,3,3.0,-999.0,-999,-99.99,,,-99.99,,2013-09-19 19:53:00,
2013-09-19 16:22:00,70.0,-99.9,-100.00,NNE,16,2.0,-999.0,-999,-99.99,,,-99.99,,2013-09-19 20:22:00,
2013-09-19 16:42:00,70.0,-99.9,-100.00,ENE,61,0.0,-999.0,-999,-99.99,,,-99.99,,2013-09-19 20:42:00,
2013-09-19 16:52:00,71.0,-99.9,-100.00,East,98,0.0,-999.0,-999,-99.99,,,-99.99,,2013-09-19 20:52:00,
2013-09-19 17:22:00,71.0,-99.9,-100.00,ESE,109,0.0,-999.0,-999,-99.99,,,-99.99,,2013-09-19 21:22:00,
2013-09-19 17:55:00,71.0,-99.9,-100.00,East,99,0.0,-999.0,-999,-99.99,,,-99.99,,2013-09-19 21:55:00,
2013-09-19 18:24:00,71.0,-99.9,-100.00,South,169,0.0,-999.0,-999,-99.99,,,-99.99,,2013-09-19 22:24:00,
2013-09-19 18:53:00,71.0,-99.9,-100.00,South,170,0.0,-999.0,-999,-99.99,,,-99.99,,2013-09-19 22:53:00,
2013-09-19 19:23:00,70.0,-99.9,-100.00,South,174,0.0,-999.0,-999,-99.99,,,-99.99,,2013-09-19 23:23:00,
2013-09-19 19:53:00,70.0,-99.9,-100.00,SSE,165,0.0,-999.0,-999,-99.99,,,-99.99,,2013-09-19 23:53:00,
2013-09-19 20:22:00,70.0,-99.9,-100.00,SSE,165,0.0,-999.0,-999,-99.99,,,-99.99,,2013-09-20 00:22:00,
2013-09-19 20:52:00,70.0,-99.9,-100.00,SSE,162,0.0,-999.0,-999,-99.99,,,-99.99,,2013-09-20 00:52:00,
2013-09-19 21:12:00,70.0,-99.9,-100.00,SSE,162,0.0,-999.0,-999,-99.99,,,-99.99,,2013-09-20 01:12:00,
2013-09-19 21:22:00,70.0,-99.9,-100.00,SSE,162,0.0,-999.0,-999,-99.99,,,-99.99,,2013-09-20 01:22:00,
2013-09-19 21:42:00,70.0,-99.9,-100.00,SSE,162,0.0,-999.0,-999,-99.99,,,-99.99,,2013-09-20 01:42:00,
2013-09-19 21:52:00,70.0,-99.9,-100.00,SSE,162,1.0,-999.0,-999,-99.99,,,-99.99,,2013-09-20 01:52:00,
2013-09-19 22:12:00,70.0,-99.9,-100.00,SSE,162,0.0,-999.0,-999,-99.99,,,-99.99,,2013-09-20 02:12:00,
2013-09-19 22:23:00,70.0,-99.9,-100.00,SSE,162,0.0,-999.0,-999,-99.99,,,-99.99,,2013-09-20 02:23:00,
2013-09-19 22:53:00,70.0,-99.9,-100.00,SSE,162,0.0,-999.0,-999,-99.99,,,-99.99,,2013-09-20 02:53:00,
2013-09-19 23:23:00,70.0,-99.9,-100.00,SSE,168,0.0,-999.0,-999,-99.99,,,-99.99,,2013-09-20 03:23:00,
2013-09-19 23:56:00,70.0,-99.9,-100.00,South,169,0.0,-999.0,-999,-99.99,,,-99.99,,2013-09-20 03:56:00,